Flag for Australia Weather past 2 weeks in Adelaide, South Australia, Australia

Now
54 °F

Clear.


Feels Like: 51 °F
Forecast: 45 / 66 °F
Wind: 9 mph from East

Location: Adelaide Airport

Current Time: Sep 19, 2014 at 11:26:56 PM

Latest Report: Sep 19, 2014 at 10:30 PM


Visibility: 10 mi

Pressure: 30.21 "Hg

Humidity: 54%

Dew point: 37 °F

Location of AdelaideLocation

Historic Weather in Adelaide — Graph

°F

Adelaide temperature yesterday

Maximum temperature yesterday: 57 °F (at 12:00 PM)
Minimum temperature yesterday: 41 °F (at 12:30 AM)
Average temperature yesterday: 50 °F

Past Weeks' High & Low Weather Summary

 TemperatureHumidityPressure
High79 °F (Sep 14, 2:30 PM)100% (Sep 5, 3:00 AM)30.36 "Hg (Sep 5, 3:00 AM)
Low39 °F (Sep 5, 6:30 AM)19% (Sep 7, 3:00 PM)29.53 "Hg (Sep 8, 5:00 PM)
Average57 °F64%30.09 "Hg
* Reported Sep 4 9:30 PM — Sep 19 10:00 PM, Adelaide, Weather by CustomWeather, © 2014

Note: Actual official high and low records may vary slightly from our data, if they occured in-between our weather recording intervals... More about our weather records

Advertising

Adelaide weather history for previous 24 hours

 ConditionsComfort  
Time TempWeatherWind HumidityBarometerVisibility
10:00 PM
Sep 19
54 °FClear.7 mph58%30.21 "Hg10 mi
9:30 PM55 °FClear.8 mph55%30.21 "Hg10 mi
9:00 PM55 °FClear.12 mph55%30.21 "Hg10 mi
8:30 PM57 °FClear.15 mph48%30.21 "Hg10 mi
8:00 PM55 °FClear.6 mph51%30.21 "Hg10 mi
7:30 PM57 °FClear.3 mph51%30.21 "Hg10 mi
7:00 PM57 °FClear.6 mph55%30.21 "Hg10 mi
6:30 PM59 °FClear.8 mph48%30.21 "Hg10 mi
6:00 PM61 °FClear.9 mph48%30.21 "Hg10 mi
5:30 PM61 °FSunny.9 mph52%30.18 "Hg10 mi
5:00 PM61 °FSunny.13 mph45%30.18 "Hg10 mi
4:30 PM63 °FSunny.10 mph42%30.18 "Hg10 mi
4:00 PM63 °FSunny.12 mph39%30.18 "Hg10 mi
3:30 PM61 °FSunny.12 mph48%30.21 "Hg10 mi
3:00 PM63 °FSunny.12 mph39%30.21 "Hg10 mi
2:30 PM63 °FSunny.13 mph42%30.21 "Hg10 mi
2:00 PM63 °FSunny.13 mph49%30.21 "Hg10 mi
1:30 PM61 °FSunny.13 mph52%30.21 "Hg10 mi
1:00 PM61 °FSunny.12 mph52%30.24 "Hg10 mi
12:30 PM59 °FSunny.12 mph55%30.24 "Hg10 mi
12:00 PM61 °FSunny.5 mph55%30.24 "Hg10 mi
11:30 AM63 °FSunny.7 mph37%30.27 "Hg10 mi
11:00 AM61 °FSunny.15 mph39%30.27 "Hg10 mi
10:30 AM63 °FPassing clouds.12 mph39%30.27 "HgN/A
10:00 AM63 °FPassing clouds.10 mph39%30.27 "HgN/A
9:30 AM61 °FPassing clouds.10 mph45%30.30 "HgN/A
9:00 AM59 °FPassing clouds.8 mph48%30.30 "HgN/A
8:30 AM57 °FSunny.9 mph51%30.30 "Hg10 mi
8:00 AM55 °FSunny.8 mph55%30.27 "Hg10 mi
7:30 AM54 °FSunny.6 mph67%30.27 "Hg10 mi
7:00 AM48 °FSunny.2 mph76%30.27 "Hg10 mi
6:30 AM45 °FSunny.6 mph81%30.27 "Hg10 mi
6:00 AM43 °FSunny.2 mph87%30.27 "Hg10 mi
5:30 AM46 °FClear.No wind82%30.24 "Hg10 mi
4:30 AM46 °FClear.7 mph76%30.24 "Hg10 mi
4:00 AM46 °FClear.6 mph82%30.24 "Hg10 mi
3:30 AM48 °FClear.9 mph76%30.24 "Hg10 mi
3:00 AM48 °FClear.9 mph76%30.24 "Hg10 mi
2:30 AM48 °FClear.7 mph76%30.24 "Hg10 mi
2:00 AM48 °FClear.7 mph76%30.27 "Hg10 mi
1:30 AM48 °FClear.8 mph76%30.27 "Hg10 mi
1:00 AM48 °FClear.7 mph76%30.27 "Hg10 mi
12:30 AM48 °FClear.8 mph76%30.27 "Hg10 mi
12:00 AM50 °FClear.7 mph71%30.27 "Hg10 mi
11:30 PM
Sep 18
50 °FClear.8 mph76%30.27 "Hg10 mi
11:00 PM50 °FClear.10 mph76%30.27 "Hg10 mi
Weather by CustomWeather, © 2014

See weather overviewHow to use our weather pages